sat.trackr.live / text

‹ back to catalog

GLOBAL-16

NORAD 49950 · 2021-120B

PAYLOAD ACTIVE UNKNOWN

§ Identity

Operator
Country
US
Launch date
2021-12-09
Launch site
RLLB
Launch vehicle
Mass (kg)
RCS (m²)

External: N2YO · Heavens-Above · Gunter

§ Orbital elements

Epoch: 2026-09-20T04:37:23.689056Z

Period
92.63 min
Inclination
41.9930°
Eccentricity
0.0015521
Mean motion
15.54573183 rev/d
Perigee alt
392.9 km
Apogee alt
413.9 km
Semi-major
6,781.5 km
B*
3.4445e-4
RAAN
206.8310°
Arg perigee
199.3240°
Mean anomaly
160.7018°
Rev number
26,961

§ Raw data

GLOBAL-161 49950U 21120B   26263.19263529  .00023218  00000+0  34445-3 0  99972 49950  41.9930 206.8310 0015521 199.3240 160.7018 15.54573183269616

JSON: /api/v1/satellites/49950 · /tle

For live sub-satellite position, see the globe view (requires WebGL).

§ Visibility from observer

Set your observer location to see the next 7 days of passes ≥ 10°. The values pass through the URL so the page stays shareable.

No JS? Fill the form by hand. The geolocation button needs JavaScript.

§ Radio — SatNOGS DB

ModeDescriptionDownlinkUplink
BPSK UHF Unknown 401.150 MHz

1 transmitter · refreshed weekly from db.satnogs.org